Showing default

SIRIUS XM-10, 64290

Orbit data source: Space-Track

SIRIUS XM-10, 64290 is a payload satellite owned by Sirius XM (US) in GEO that was launched on Sat, 07 Jun 2025 UTC via an FALCON 9 launch vehicle from the Air Force Eastern Test Range (AFETR). Payload-class satellites include a variety of spacecraft equipped with specific instruments for various scientific and technological missions. These include communications satellites like Starlink; space stations such as the ISS; scientific satellites like the Hubble; Earth observation satellites from companies like Planet Labs, Umbra, and HawkEye 360; GPS; miniature CubeSats for education and research; and military/defense satellites.

Loading next visibility...
Identifier
64290, 2025-122A
Orbit
GEO
Last TLE update
17 hours ago
Origin
Flag of USSIRX (US)
Manufacturer
Maxar Space Sol
Mission
Operational Commercial Communications
Bus & Motor
LS-1300, R-4D
Mass
~6,400 kg wet, ~2,800 kg dry
Launch date (UTC)
2025-06-07 (2 months ago)
Launch vehicle
FALCON 9
Launch site
Air Force Eastern Test Range (AFETR)
Object type
Payload
Rocket body
Debris
Shape & HBR
Box + 2 Pan, 15.0 m
Radar Cross Section
98.149 m², Large (>1 m²)

Expand to show TLE details & history

TLE from 17 hours ago
0 SIRIUS XM-10
1 64290U 25122A   25210.88332962 -.00000019  00000-0  00000+0 0  9994
2 64290   0.0254  29.6554 0004484 329.8108 150.1628  1.00290066   711
Epoch: 2025-07-29T21:11Z
TLE epoch observation values (Epoch: 2025-07-29T21:11:59.679Z)
Latitude
0.03695°
Longitude
-116.10035°
Altitude
35,797.387 km
Speed
3.074 km/s
True Right ascension
09h 58m 40s
True Declination
0° 02' 13"
Sunlit
Object was in daylight at epoch
Visualization orbit readout
Latitude
-0.00249°
Longitude
135.3104°
Altitude
35,766.858 km
Speed
3.076 km/s
Apparent Right ascension
02h 38m 37s
Apparent Declination
-6° 13' 25"
Sunlit
Object is in daylight
Visualization observer readout
Local Sidereal Time
03:28:02
Azimuth
196.76° SSW
Elevation
42.473°
Doppler factor
1
Orbital elements
Apogee altitude
35,801.446 km
Perigee altitude
35,763.637 km
Semi-major axis
42,160.678 km
Eccentricity
0.00045
Inclination
0.0254°
RAAN
29.6554°
Arg. of periapsis
329.8108°
True anomaly
150.18835°
Mean anomaly
150.1628°
Eccentric anomaly
150.17558°
Mean motion
0.25072 °/min
Orbital period
1,435.89 mins
BSTAR
0
Loading maneuver chart data...
Loading SW <> Apogee altitude chart data...
Loading historical data...
Loading historical data...
Loading historical data...
Loading historical data...
Loading historical data...
Loading historical data...
Loading historical data...
Other satellites on launch #122 in the year 2025 (2025-06-07 UTC)
|